EN

Hourly Weather Innsbruck

Today, 24 November, Tuesday

Time Temperature Precipitation Wind Pressure Humidity
00:00 -4°C° 0 mm 1 mps 598 mmHg 65%
01:00 -4°C° 0 mm 1 mps 598 mmHg 64%
02:00 -4°C° 0 mm 1 mps 598 mmHg 64%
03:00 -4°C° 0 mm 1 mps 598 mmHg 63%
04:00 -4°C° 0 mm 1 mps 598 mmHg 63%
05:00 -3°C° 0 mm 1 mps 598 mmHg 62%
06:00 -3°C° 0 mm 1 mps 598 mmHg 62%
07:00 -3°C° 0 mm 1 mps 598 mmHg 61%
08:00 -2°C° 0 mm 1 mps 598 mmHg 60%
09:00 0°C° 0 mm 1 mps 599 mmHg 59%
10:00 +2°C° 0 mm 1 mps 600 mmHg 58%
11:00 +3°C° 0 mm 1 mps 600 mmHg 59%
12:00 +3°C° 0 mm 1 mps 600 mmHg 60%
13:00 +4°C° 0 mm 1 mps 600 mmHg 61%
14:00 +3°C° 0 mm 1 mps 599 mmHg 63%
15:00 +1°C° 0 mm 2 mps 598 mmHg 65%
16:00 -2°C° 0 mm 2 mps 597 mmHg 67%
17:00 -3°C° 0 mm 2 mps 597 mmHg 65%
18:00 -3°C° 0 mm 2 mps 597 mmHg 63%
19:00 -4°C° 0 mm 2 mps 596 mmHg 61%
20:00 -4°C° 0 mm 2 mps 596 mmHg 59%
21:00 -4°C° 0 mm 2 mps 596 mmHg 58%
22:00 -5°C° 0 mm 2 mps 596 mmHg 57%
23:00 -5°C° 0 mm 2 mps 596 mmHg 56%

Tomorrow, 25 November, Wednesday

Time Temperature Precipitation Wind Pressure Humidity
00:00 -5°C° 0 mm 2 mps 596 mmHg 56%
01:00 -5°C° 0 mm 2 mps 596 mmHg 56%
02:00 -5°C° 0 mm 2 mps 595 mmHg 56%
03:00 -5°C° 0 mm 2 mps 595 mmHg 57%
04:00 -5°C° 0 mm 2 mps 595 mmHg 57%
05:00 -5°C° 0 mm 2 mps 595 mmHg 57%
06:00 -5°C° 0 mm 2 mps 595 mmHg 58%
07:00 -5°C° 0 mm 2 mps 595 mmHg 58%
08:00 -3°C° 0 mm 2 mps 595 mmHg 58%
09:00 -2°C° 0 mm 2 mps 596 mmHg 58%
10:00 +1°C° 0 mm 2 mps 597 mmHg 58%
11:00 +2°C° 0 mm 2 mps 597 mmHg 58%
12:00 +3°C° 0 mm 2 mps 597 mmHg 59%
13:00 +4°C° 0 mm 2 mps 597 mmHg 59%
14:00 +2°C° 0 mm 2 mps 597 mmHg 61%
15:00 +1°C° 0 mm 2 mps 596 mmHg 63%
16:00 -1°C° 0 mm 2 mps 595 mmHg 66%
17:00 -2°C° 0 mm 2 mps 595 mmHg 65%
18:00 -3°C° 0 mm 2 mps 595 mmHg 64%
19:00 -4°C° 0 mm 2 mps 595 mmHg 63%
20:00 -4°C° 0 mm 2 mps 595 mmHg 63%
21:00 -4°C° 0 mm 2 mps 595 mmHg 62%
22:00 -4°C° 0 mm 2 mps 595 mmHg 62%
23:00 -4°C° 0 mm 2 mps 595 mmHg 62%

Day after tomorrow, 26 November, Thursday

Time Temperature Precipitation Wind Pressure Humidity
00:00 -4°C° 0 mm 2 mps 595 mmHg 62%
01:00 -4°C° 0 mm 2 mps 595 mmHg 62%
02:00 -4°C° 0 mm 2 mps 595 mmHg 62%
03:00 -5°C° 0 mm 2 mps 595 mmHg 61%
04:00 -5°C° 0 mm 2 mps 595 mmHg 61%
05:00 -5°C° 0 mm 2 mps 595 mmHg 61%
06:00 -5°C° 0 mm 2 mps 595 mmHg 61%
07:00 -5°C° 0 mm 2 mps 595 mmHg 60%
08:00 -1°C° 0 mm 1 mps 596 mmHg 59%
09:00 0°C° 0 mm 1 mps 596 mmHg 59%
10:00 +1°C° 0 mm 1 mps 597 mmHg 58%
11:00 +2°C° 0 mm 1 mps 597 mmHg 59%
12:00 +3°C° 0 mm 1 mps 597 mmHg 59%
13:00 +4°C° 0 mm 1 mps 597 mmHg 60%
14:00 +2°C° 0 mm 1 mps 596 mmHg 63%
15:00 +1°C° 0 mm 1 mps 595 mmHg 66%
16:00 -2°C° 0 mm 0 mps 594 mmHg 69%
17:00 -1°C° 0 mm 1 mps 594 mmHg 69%
18:00 -2°C° 0 mm 1 mps 594 mmHg 69%
19:00 -3°C° 0 mm 1 mps 594 mmHg 68%
20:00 -3°C° 0 mm 1 mps 594 mmHg 67%
21:00 -3°C° 0 mm 1 mps 594 mmHg 66%
22:00 -3°C° 0 mm 1 mps 594 mmHg 66%
23:00 -3°C° 0 mm 1 mps 594 mmHg 65%

27 November, Friday

Time Temperature Precipitation Wind Pressure Humidity
00:00 -3°C° 0 mm 1 mps 594 mmHg 64%
01:00 -4°C° 0 mm 1 mps 593 mmHg 64%
02:00 -4°C° 0 mm 1 mps 593 mmHg 63%
03:00 -4°C° 0 mm 1 mps 593 mmHg 63%
04:00 -4°C° 0 mm 1 mps 593 mmHg 63%
05:00 -4°C° 0 mm 1 mps 593 mmHg 63%
06:00 -4°C° 0 mm 1 mps 593 mmHg 63%
07:00 -4°C° 0 mm 1 mps 593 mmHg 62%
08:00 -3°C° 0 mm 1 mps 593 mmHg 61%
09:00 -1°C° 0 mm 1 mps 594 mmHg 60%
10:00 0°C° 0 mm 1 mps 594 mmHg 59%
11:00 +1°C° 0 mm 1 mps 594 mmHg 59%
12:00 +2°C° 0 mm 1 mps 594 mmHg 59%
13:00 +2°C° 0 mm 1 mps 594 mmHg 59%
14:00 +1°C° 0 mm 1 mps 594 mmHg 64%
15:00 -1°C° 0 mm 1 mps 593 mmHg 69%
16:00 -4°C° 0 mm 2 mps 592 mmHg 74%
17:00 -5°C° 0 mm 2 mps 592 mmHg 75%
18:00 -5°C° 0 mm 2 mps 592 mmHg 75%
19:00 -6°C° 0 mm 2 mps 592 mmHg 76%
20:00 -7°C° 0 mm 3 mps 592 mmHg 75%
21:00 -7°C° 0 mm 3 mps 592 mmHg 75%
22:00 -7°C° 0 mm 3 mps 592 mmHg 75%
23:00 -7°C° 0 mm 3 mps 592 mmHg 76%

28 November, Saturday

Time Temperature Precipitation Wind Pressure Humidity
00:00 -7°C° 0 mm 3 mps 592 mmHg 76%
01:00 -7°C° 0 mm 3 mps 592 mmHg 77%
02:00 -7°C° 0 mm 3 mps 592 mmHg 77%
03:00 -7°C° 0 mm 3 mps 592 mmHg 78%
04:00 -6°C° 0 mm 3 mps 592 mmHg 79%
05:00 -6°C° 0 mm 3 mps 592 mmHg 80%
06:00 -6°C° 0 mm 3 mps 592 mmHg 82%
07:00 -6°C° 0 mm 3 mps 592 mmHg 83%
08:00 -5°C° 0 mm 3 mps 592 mmHg 80%
09:00 -4°C° 0 mm 3 mps 593 mmHg 78%
10:00 -2°C° 0 mm 3 mps 593 mmHg 75%
11:00 -1°C° 0 mm 3 mps 593 mmHg 74%
12:00 +1°C° 0 mm 2 mps 593 mmHg 73%
13:00 +2°C° 0 mm 2 mps 593 mmHg 72%
14:00 +1°C° 0 mm 2 mps 593 mmHg 76%
15:00 -1°C° 0 mm 2 mps 592 mmHg 80%
16:00 -2°C° 0 mm 2 mps 592 mmHg 83%
17:00 -3°C° 0 mm 2 mps 591 mmHg 85%
18:00 -3°C° 0 mm 2 mps 591 mmHg 86%
19:00 -3°C° 0 mm 2 mps 591 mmHg 87%
20:00 -3°C° 0 mm 2 mps 591 mmHg 87%
21:00 -3°C° 0 mm 2 mps 591 mmHg 87%
22:00 -3°C° 0 mm 2 mps 591 mmHg 87%
23:00 -4°C° 0 mm 3 mps 591 mmHg 88%

29 November, Sunday

Time Temperature Precipitation Wind Pressure Humidity
00:00 -4°C° 0 mm 3 mps 591 mmHg 88%
01:00 -4°C° 0 mm 3 mps 591 mmHg 89%
02:00 -4°C° 0 mm 3 mps 591 mmHg 89%
03:00 -4°C° 0 mm 3 mps 591 mmHg 89%
04:00 -4°C° 0 mm 3 mps 590 mmHg 89%
05:00 -3°C° 0 mm 2 mps 590 mmHg 89%
06:00 -3°C° 0 mm 2 mps 590 mmHg 89%
07:00 -3°C° 0 mm 2 mps 590 mmHg 89%
08:00 -2°C° 0 mm 2 mps 591 mmHg 87%
09:00 +1°C° 0 mm 1 mps 591 mmHg 84%
10:00 +1°C° 0 mm 1 mps 591 mmHg 82%
11:00 +2°C° 0 mm 1 mps 592 mmHg 80%
12:00 +3°C° 0 mm 1 mps 592 mmHg 79%
13:00 +3°C° 0 mm 1 mps 592 mmHg 78%
14:00 +1°C° 0 mm 0 mps 591 mmHg 82%
15:00 0°C° 0 mm 0 mps 591 mmHg 85%
16:00 -1°C° 0 mm 0 mps 590 mmHg 89%
17:00 -2°C° 0 mm 0 mps 590 mmHg 88%
18:00 -1°C° 0 mm 1 mps 590 mmHg 87%
19:00 -2°C° 0 mm 1 mps 590 mmHg 86%
20:00 -2°C° 0 mm 1 mps 590 mmHg 85%
21:00 -2°C° 0 mm 1 mps 590 mmHg 84%
22:00 -2°C° 0 mm 1 mps 590 mmHg 83%
23:00 -2°C° 0 mm 1 mps 590 mmHg 83%
Show more

We Need Your Consent

Meteoprog and our Service Providers may store and access personal data such as cookies, device identifiers or other similar technologies on your device and process such data to personalise content and ads, as well as provide social media features and to analyse the traffic.

  • Store and/or access information on your device

    Cookies, device identifiers or other information can be stored or accessed on your device for the purposes indicated above.

  • Personalised ads and content, ad and content measurement, audience insights, and products development

    Ads and content can be personalised based on a profile. More data can be added to better personalise ads and content. Ad and content performance can be measured. Insights about the audience who saw the ads and content can be derived. Such data can be used to develop or improve user’s experience, systems and software.

By clicking ‘I Agree’ you will allow the use of indicated cookies, device identifiers, web beacons or other similar technologies. Your settings can be changed in the browser on your device.

For certain purposes, legitimate interests may be relied on, rather than consent. You can read more about this in our Privacy and Cookie Policy.